sat.trackr.live / text

‹ back to catalog

CELESTIS-02 & TAURUS R/B

NORAD 25160 · 1998-007D

PAYLOAD ACTIVE UNKNOWN

§ Identity

Operator
Country
US
Launch date
1998-02-10
Launch site
AFWTR
Launch vehicle
Mass (kg)
RCS (m²)
3.45

External: N2YO · Heavens-Above · Gunter

§ Orbital elements

Epoch: 2026-05-25T03:15:43.613280Z

Period
101.23 min
Inclination
108.0112°
Eccentricity
0.0061899
Mean motion
14.22477549 rev/d
Perigee alt
772.4 km
Apogee alt
861.5 km
Semi-major
7,195.1 km
B*
7.1190e-5
RAAN
285.7788°
Arg perigee
174.1177°
Mean anomaly
358.6652°
Rev number
46,723

§ Raw data

CELESTIS-02 & TAURUS R/B1 25160U 98007D   26145.13592145  .00000032  00000+0  71190-4 0  99922 25160 108.0112 285.7788 0061899 174.1177 358.6652 14.22477549467237

JSON: /api/v1/satellites/25160 · /tle

For live sub-satellite position, see the globe view (requires WebGL).

§ Visibility from observer

Set your observer location to see the next 7 days of passes ≥ 10°. The values pass through the URL so the page stays shareable.

No JS? Fill the form by hand. The geolocation button needs JavaScript.